Погода в Очо-Риос

Ямайка     18°23′53″N   77°06′08″W
темп.,
°C
ветер,
м/с
пор.,
м/с
влажн.,
%
обл.,
%
осадки,
мм/ч
давл.,
гПа
погр.,
м
16 сентября, чт
чт1601:00+28вюв6878100 0.0 1014756
04:00+27юв347879 0.0 1013407
07:00+27ююв247665 0.0 1014288
10:00+28в567516 0.0 1016611
13:00+29в9974100 1.9 1015644
16:00+29в8975100 3.8 1014672
19:00+29вюв9107899 3.9 1015825
22:00+29вюв8107688 0.0 1016831
17 сентября, пт
пт1701:00+29вюв81075100 0.0 1015885
04:00+29в810755 0.0 1014990
07:00+29в787697 0.0 1016938
10:00+29в897660 0.0 1017864
13:00+29в7875100 0.0 1016788
16:00+29в677563 0.0 1014763
19:00+29вюв677612 0.0 1015651
22:00+29вюв677421 0.0 1016589
18 сентября, сб
сб1801:00+28вюв567687 0.0 1014648
04:00+28вюв467799 0.0 1013610
07:00+28вюв5678100 0.1 1015712
10:00+28в7777100 0.1 1015835
13:00+29всв8977100 1.9 1014929
16:00+28всв5679100 2.9 1012450
19:00+29юв4474100 3.6 1013594
22:00+28вюв4575100 0.0 1014607
19 сентября, вс
вс1901:00+28юв457697 0.0 1013614
04:00+28вюв347886 0.1 1013514
07:00+28в5673100 1.2 1014900
10:00+29всв777599 2.3 1014910
13:00+28всв6775100 5.1 1013859
16:00+29в677531 3.7 1011796
19:00+28юв457656 5.8 1012482
22:00+28вюв347547 0.0 1013674
20 сентября, пн
пн2001:00+28юв347855 0.0 1012517
04:00+27вюв34795 0.2 1012517
07:00+28в677581 0.8 1013882
10:00+28в677581 0.1 1014873
13:00+28всв5675100 2.0 1013803
16:00+29в337397 1.1 1011799
19:00+28юв447481 1.1 1011475
22:00+28юв227433 0.0 1013308